Theta_e
331 340 343 347 348 347 347 347 347 347 346 345 344 344 344 345 344 343 344 344 344 344 344 344 343 341 340 341 340 338 337 337 336 335 335 334 335 336 333 331 328 325 331
336 338 343 347 348 348 348 347 346 346 345 345 343 341 341 340 341 341 343 342 343 343 342 340 339 336 335 333 333 337 336 335 336 336 335 336 337 339 338 336 332 330 331
334 338 344 345 347 347 347 346 345 345 344 343 341 340 338 337 336 337 336 338 338 339 338 337 335 333 331 331 329 330 331 331 336 334 335 337 339 338 341 339 337 334 330
335 339 342 341 344 345 344 343 342 342 342 341 340 338 337 336 335 334 333 332 334 333 332 332 331 328 329 330 330 331 331 329 333 333 336 337 337 337 338 339 339 338 333
336 339 340 340 342 341 340 339 339 339 339 339 338 336 336 334 332 332 331 331 332 331 331 329 327 330 330 329 329 328 328 329 332 333 336 337 337 338 339 338 338 338 336
334 336 336 339 340 339 338 338 337 336 336 335 334 334 334 331 329 330 329 329 329 328 327 331 330 329 330 332 329 328 329 332 331 336 335 336 337 338 338 338 337 337 339
333 333 335 337 338 338 338 337 335 334 334 332 331 331 330 328 327 327 326 326 326 325 330 328 329 329 329 331 332 334 333 333 334 334 334 336 336 338 339 338 337 336 335
329 331 333 331 334 335 335 334 333 332 330 329 328 327 326 325 325 324 324 324 325 329 328 328 328 327 331 331 331 333 331 331 331 333 334 334 335 337 337 335 335 334 333
330 329 330 331 330 329 331 332 331 330 328 327 326 325 323 323 321 322 322 323 327 330 329 329 328 327 331 331 329 328 328 328 332 333 332 334 333 336 336 334 333 332 331
327 329 328 329 330 330 329 325 326 327 326 324 323 321 319 319 318 319 321 323 329 328 329 328 328 330 330 329 327 326 326 327 330 331 332 331 332 334 333 331 331 330 328
323 326 327 327 328 328 328 322 321 322 321 318 316 314 315 319 318 319 319 323 327 327 326 326 325 322 323 322 322 324 325 329 329 328 327 328 329 330 330 329 328 326 326
319 321 323 324 324 324 322 323 323 320 318 315 311 309 310 312 313 313 315 320 325 325 323 321 319 316 316 321 322 324 327 327 326 326 325 327 328 328 327 326 325 323 323
319 320 320 322 322 322 319 320 318 312 308 308 307 303 306 306 305 307 312 318 321 317 319 318 317 317 316 317 317 320 324 324 323 321 322 323 324 324 324 323 322 321 321
317 319 319 320 319 319 318 317 315 312 307 305 306 304 305 305 306 305 307 310 310 310 311 313 312 312 312 312 313 312 316 317 320 319 319 320 322 322 322 321 320 319 319
315 317 318 318 318 317 316 316 314 313 309 307 304 302 302 305 305 303 304 305 305 307 307 309 307 309 307 308 308 309 308 309 311 311 317 316 320 320 320 320 319 319 318
314 315 317 316 317 316 314 314 312 311 309 305 303 301 302 304 304 302 303 302 302 302 303 307 307 304 303 306 303 304 303 302 304 307 315 317 319 319 317 317 318 317 316
312 314 314 315 315 314 312 312 311 307 303 301 301 302 302 302 302 300 301 300 300 299 302 303 305 301 303 299 297 298 299 299 302 301 303 314 316 316 317 316 316 316 314
311 311 313 311 312 311 310 308 304 302 301 300 299 300 299 299 300 300 300 300 299 299 301 305 304 301 297 299 297 293 294 296 297 298 301 305 311 312 311 313 314 313 312
308 309 309 310 309 309 308 304 302 301 300 300 300 298 297 297 299 299 300 299 296 296 299 302 302 300 294 292 290 290 289 290 291 293 294 298 303 305 306 305 307 308 309
306 307 307 308 308 307 304 302 301 300 300 300 299 297 295 296 297 298 299 297 295 295 297 298 297 297 292 291 290 287 287 287 288 287 290 293 297 300 301 302 304 304 306
304 304 304 304 305 304 301 300 299 298 299 300 300 298 298 295 297 297 298 299 297 297 298 297 296 292 288 289 288 286 286 286 285 286 287 290 292 296 297 298 299 301 300
303 303 303 303 303 302 303 302 301 300 301 301 299 297 296 297 296 296 296 295 295 296 297 296 294 291 288 288 287 288 284 286 285 285 286 287 289 293 293 293 295 296 297
301 302 301 302 302 301 302 301 300 301 299 297 296 296 294 296 296 295 295 295 293 296 294 295 295 294 291 288 289 291 285 289 287 288 287 287 288 289 290 290 289 291 293
300 302 301 301 301 300 301 300 299 297 297 298 297 297 295 294 294 295 295 296 295 294 294 295 296 295 293 289 288 289 290 292 292 286 287 287 287 286 287 287 287 287 288
296 299 300 300 300 299 299 299 299 299 300 299 299 294 293 293 293 295 296 296 295 296 297 295 294 294 294 294 293 291 289 289 289 288 285 285 286 287 288 287 287 287 287
295 297 298 298 297 298 297 298 298 299 299 297 297 296 296 296 295 296 296 296 295 296 297 296 296 295 294 294 293 292 291 289 288 287 286 286 285 286 287 288 287 287 288
Wind_Speed
8 11 7 15 18 17 16 15 15 15 15 13 12 11 11 12 10 8 5 8 9 8 8 10 9 8 6 5 6 6 5 4 2 1 1 1 2 2 2 2 2 4 4
12 7 6 14 18 18 17 16 15 15 15 14 12 8 7 9 9 8 8 7 7 8 8 7 7 5 4 3 2 6 5 2 1 2 3 6 6 7 8 6 4 5 5
13 7 10 9 15 17 14 13 13 13 12 12 9 8 6 6 4 4 4 5 5 5 4 4 5 3 1 1 2 3 2 1 3 3 4 7 4 2 12 9 8 6 6
13 10 13 11 13 15 17 16 14 12 11 10 9 7 6 5 4 3 2 1 3 2 1 1 1 1 0 3 3 1 3 3 5 2 8 5 3 2 6 7 11 11 7
11 10 11 11 15 14 13 14 13 11 9 10 9 7 6 5 3 3 3 3 3 3 3 2 3 3 3 4 4 4 1 4 2 6 6 6 6 5 7 7 7 10 6
12 11 11 11 15 15 13 11 11 11 10 8 7 7 7 5 4 4 4 4 4 4 4 6 4 2 1 5 7 5 7 5 5 7 6 4 3 11 13 19 22 21 15
12 10 11 10 13 14 14 14 13 12 10 8 6 6 6 5 4 4 3 4 4 5 7 5 4 1 2 2 2 8 6 5 8 5 5 6 8 14 18 19 22 21 21
11 9 9 8 9 10 12 13 14 13 11 10 8 6 5 5 3 3 4 5 5 8 6 5 3 2 2 6 3 6 7 6 6 5 3 5 12 16 19 20 21 21 20
13 11 9 10 9 9 9 9 9 11 11 9 9 9 6 4 3 3 4 6 8 7 8 7 5 2 8 8 6 7 6 1 5 5 8 7 10 17 20 21 21 21 21
11 12 10 9 10 10 9 9 9 9 10 9 5 8 11 9 7 6 6 7 6 8 9 9 9 10 11 11 8 9 9 7 8 9 8 8 14 18 21 22 20 21 21
11 12 11 11 10 10 10 10 11 10 11 14 10 7 6 4 3 2 7 9 6 9 10 9 11 11 11 10 7 4 8 7 9 8 7 14 18 19 20 21 19 19 22
16 14 12 12 12 11 8 11 9 8 6 7 7 4 3 4 4 5 7 9 3 10 11 9 7 8 2 3 4 5 7 10 10 10 7 15 20 19 19 19 18 17 20
15 13 15 13 12 12 9 7 5 4 5 5 7 6 4 3 2 2 3 3 6 4 4 2 4 2 4 4 4 6 8 10 8 7 9 16 17 16 17 17 17 17 18
16 16 16 15 13 12 8 8 7 6 6 5 6 7 4 2 3 3 4 3 3 2 2 1 1 4 6 7 8 7 8 7 7 8 10 12 16 16 16 16 15 16 16
16 17 17 16 14 12 11 8 8 7 7 7 6 7 5 5 4 2 3 2 4 2 1 0 2 4 6 7 7 7 8 8 9 3 7 9 15 14 15 16 14 14 16
15 17 17 18 16 14 12 12 9 8 8 8 8 8 9 6 6 3 2 2 5 2 2 2 3 4 6 6 8 8 7 6 7 6 8 8 13 13 13 12 13 13 14
15 16 18 18 17 16 15 12 9 8 9 8 8 11 11 9 8 5 4 1 5 1 0 2 3 5 6 6 7 6 7 7 7 6 5 5 10 14 10 11 12 13 11
16 18 17 15 18 17 15 12 9 9 9 9 9 9 10 9 8 6 4 4 5 3 4 5 5 5 6 5 6 5 6 7 7 6 6 3 8 9 11 9 9 10 10
17 16 17 18 18 18 15 12 12 12 10 8 8 8 9 7 6 5 5 5 6 4 4 5 5 5 6 6 6 5 5 6 6 5 7 6 7 10 6 10 13 8 7
15 16 16 15 17 17 12 11 9 9 9 9 8 8 10 8 7 5 4 6 7 5 5 6 6 6 5 6 7 6 5 6 4 4 5 4 4 8 7 6 5 8 11
15 16 17 18 18 15 13 13 12 12 10 9 9 12 13 9 9 8 6 10 10 9 9 10 9 11 5 5 5 5 4 3 4 3 3 2 3 6 6 5 4 3 4
15 17 17 18 19 17 13 12 9 11 9 9 8 11 10 13 10 9 7 8 9 8 9 12 11 7 3 4 3 3 3 1 0 0 1 2 2 3 4 4 5 4 4
15 17 18 19 20 19 17 12 8 10 8 9 10 10 8 12 10 8 9 7 8 9 9 11 11 10 8 6 5 3 4 4 5 4 5 4 5 4 4 4 4 4 4
15 14 17 18 19 18 19 16 17 13 11 10 11 11 9 10 10 9 8 8 10 8 10 11 10 10 8 8 3 3 1 2 3 4 4 6 4 4 5 4 5 4 4
10 13 14 16 17 18 18 17 14 14 10 8 9 13 10 11 10 12 12 12 12 9 11 12 11 11 8 7 6 5 2 1 2 2 3 5 5 5 5 5 5 5 5
7 11 13 15 16 17 17 18 17 17 13 11 12 11 11 11 12 15 14 14 11 11 12 11 12 12 10 7 6 4 5 4 4 3 3 3 5 6 6 5 5 4 4
Wind_Direction
179 153 193 186 170 171 166 163 160 156 150 146 147 143 146 130 126 141 151 167 159 132 125 115 109 98 86 106 131 134 127 117 114 152 190 217 235 234 196 143 184 129 122
151 161 185 170 167 166 167 165 163 155 152 146 139 127 117 91 82 81 93 113 131 124 119 127 132 123 101 71 117 141 133 110 298 247 243 234 230 235 222 206 221 112 143
161 180 163 144 167 162 154 154 150 151 148 131 131 134 111 93 86 103 97 98 108 112 126 143 89 58 38 275 268 298 256 208 225 271 268 245 224 290 217 207 197 188 160
158 176 158 131 125 136 135 131 127 126 127 133 131 136 137 146 146 152 133 173 196 94 223 53 16 305 243 220 250 287 231 249 279 300 236 236 211 157 201 208 212 189 166
164 165 136 141 137 133 130 131 131 128 132 136 134 138 140 134 151 170 177 169 167 176 165 188 175 197 179 219 224 237 185 226 250 241 223 232 234 127 148 149 172 167 162
161 158 144 144 144 143 142 137 133 131 137 137 131 141 138 136 182 182 170 172 175 178 192 171 139 162 259 255 236 237 218 204 215 214 221 164 239 120 115 104 100 88 107
161 160 157 146 147 144 150 149 143 138 138 129 141 139 137 147 183 189 197 200 199 199 182 150 119 147 252 177 242 228 204 186 229 195 198 185 123 131 115 108 101 96 90
164 160 155 143 143 150 155 156 151 146 147 146 148 151 158 164 189 211 210 219 211 195 156 134 152 212 165 100 84 97 131 189 199 167 135 112 130 127 115 104 98 98 98
181 168 165 160 148 140 145 148 150 146 145 147 151 147 139 149 183 218 227 228 215 160 141 139 122 186 139 106 102 122 111 313 120 108 111 106 122 114 108 103 103 99 98
189 191 176 175 176 169 149 132 136 133 137 133 122 109 92 83 40 29 325 245 195 146 134 122 90 71 95 89 97 106 110 89 91 85 86 95 101 103 102 98 97 100 102
194 196 190 185 182 177 171 145 126 123 116 112 102 93 109 127 85 2 348 298 165 135 134 116 95 69 71 75 75 108 99 105 100 93 78 98 100 95 95 97 99 102 99
197 195 194 192 189 178 170 168 166 150 145 127 111 69 62 86 72 50 8 7 84 110 103 97 92 81 179 149 114 98 115 116 100 94 89 102 96 95 100 102 99 99 97
198 194 198 194 190 184 176 175 169 149 130 122 113 91 70 76 67 78 46 29 87 63 106 119 147 113 119 125 114 104 119 118 108 98 99 102 92 100 100 100 107 102 99
201 200 196 194 189 188 182 187 172 165 152 144 139 131 125 87 51 52 91 53 43 357 100 130 119 121 102 99 104 101 109 103 110 115 112 98 109 108 108 108 103 102 107
206 203 197 195 192 189 191 189 185 182 180 162 155 152 156 152 136 111 100 98 86 326 16 157 131 125 108 100 86 88 85 88 93 61 98 98 105 111 107 102 104 108 103
210 207 199 198 197 189 192 192 188 186 182 177 169 165 165 161 144 127 128 166 95 21 350 258 172 119 110 103 89 89 81 66 74 74 119 114 100 103 101 121 124 116 112
212 208 202 199 196 193 195 192 189 186 180 174 171 168 167 153 148 135 134 114 102 60 207 168 158 124 113 86 76 75 76 66 65 66 27 116 101 72 96 109 122 116 113
215 206 200 197 195 197 193 187 184 181 182 180 170 165 159 150 148 137 142 129 107 164 186 214 183 133 105 113 110 62 71 69 67 50 53 41 110 103 66 77 111 125 122
216 207 199 197 196 195 193 185 184 181 183 174 172 166 162 160 156 154 165 149 147 152 190 202 174 149 122 98 82 71 44 55 55 53 51 46 91 109 109 71 61 43 134
213 209 202 197 195 190 183 185 179 178 181 176 175 172 163 161 159 174 189 150 149 156 168 168 166 129 112 121 112 74 51 34 43 39 34 39 66 96 99 91 84 56 36
209 202 200 193 190 182 183 182 182 185 181 180 181 178 174 169 170 182 197 181 164 176 181 172 154 143 116 134 110 68 51 22 44 31 34 45 61 76 86 84 78 76 65
205 205 200 199 191 189 187 184 185 183 190 181 179 183 185 182 177 175 179 183 165 179 176 175 164 149 118 188 122 132 137 225 229 239 143 180 134 108 119 107 111 96 88
210 206 202 198 193 192 189 178 170 158 158 176 187 189 194 189 174 173 177 180 182 183 177 179 177 181 157 187 218 148 151 207 150 185 214 220 175 166 166 153 144 136 123
214 206 204 199 195 192 187 181 182 179 181 195 192 189 182 184 179 187 191 188 197 203 178 186 185 186 168 173 179 207 38 86 193 177 208 217 207 196 192 178 175 166 157
214 201 198 195 192 190 188 190 186 195 190 175 174 176 181 186 191 191 197 201 201 203 196 188 186 193 195 180 188 165 157 137 105 190 198 195 209 209 203 201 190 184 174
177 187 186 185 188 186 189 195 195 194 181 177 176 181 186 187 193 200 203 201 197 198 199 196 193 197 201 197 191 180 176 176 176 169 198 203 211 191 201 197 201 195 182